Hourly Weather Ruyka

Today, 19 April, Monday

Time Temperature Precipitation Wind Pressure Humidity
00:00 -1°C° 0 mm 5 mps 758 mmHg 68%
01:00 -1°C° 0 mm 5 mps 758 mmHg 67%
02:00 -2°C° 0 mm 5 mps 758 mmHg 66%
03:00 -4°C° 0 mm 5 mps 759 mmHg 66%
04:00 -4°C° 0 mm 5 mps 759 mmHg 64%
05:00 -4°C° 0 mm 5 mps 759 mmHg 63%
06:00 -4°C° 0 mm 5 mps 759 mmHg 61%
07:00 -2°C° 0 mm 6 mps 759 mmHg 54%
08:00 -1°C° 0 mm 7 mps 759 mmHg 47%
09:00 0°C° 0 mm 7 mps 760 mmHg 38%
10:00 +2°C° 0 mm 7 mps 760 mmHg 35%
11:00 +3°C° 0 mm 7 mps 760 mmHg 31%
12:00 +4°C° 0 mm 7 mps 760 mmHg 28%
13:00 +4°C° 0 mm 7 mps 760 mmHg 28%
14:00 +4°C° 0 mm 7 mps 759 mmHg 27%
15:00 +5°C° 0 mm 7 mps 759 mmHg 26%
16:00 +4°C° 0 mm 6 mps 759 mmHg 30%
17:00 +3°C° 0 mm 6 mps 759 mmHg 34%
18:00 +2°C° 0 mm 5 mps 760 mmHg 37%
19:00 +1°C° 0 mm 5 mps 760 mmHg 42%
20:00 0°C° 0 mm 4 mps 760 mmHg 47%
21:00 -1°C° 0 mm 4 mps 760 mmHg 52%
22:00 -2°C° 0 mm 4 mps 761 mmHg 53%
23:00 -2°C° 0 mm 4 mps 761 mmHg 54%

Tomorrow, 20 April, Tuesday

Time Temperature Precipitation Wind Pressure Humidity
00:00 -3°C° 0 mm 4 mps 761 mmHg 55%
01:00 -3°C° 0 mm 4 mps 761 mmHg 55%
02:00 -3°C° 0 mm 4 mps 761 mmHg 55%
03:00 -3°C° 0 mm 4 mps 761 mmHg 54%
04:00 -3°C° 0 mm 4 mps 761 mmHg 53%
05:00 -2°C° 0 mm 4 mps 761 mmHg 52%
06:00 -2°C° 0 mm 4 mps 761 mmHg 50%
07:00 0°C° 0 mm 4 mps 761 mmHg 45%
08:00 +1°C° 0 mm 5 mps 761 mmHg 40%
09:00 +3°C° 0 mm 5 mps 761 mmHg 34%
10:00 +5°C° 0 mm 5 mps 761 mmHg 32%
11:00 +6°C° 0 mm 5 mps 761 mmHg 30%
12:00 +7°C° 0 mm 5 mps 761 mmHg 28%
13:00 +7°C° 0 mm 5 mps 761 mmHg 28%
14:00 +7°C° 0 mm 5 mps 760 mmHg 28%
15:00 +8°C° 0 mm 5 mps 760 mmHg 28%
16:00 +7°C° 0 mm 5 mps 759 mmHg 33%
17:00 +6°C° 0 mm 4 mps 759 mmHg 37%
18:00 +5°C° 0 mm 4 mps 759 mmHg 42%
19:00 +4°C° 0 mm 4 mps 759 mmHg 45%
20:00 +3°C° 0 mm 4 mps 759 mmHg 48%
21:00 +1°C° 0 mm 4 mps 759 mmHg 51%
22:00 0°C° 0 mm 4 mps 758 mmHg 53%
23:00 0°C° 0 mm 4 mps 758 mmHg 55%

Day after tomorrow, 21 April, Wednesday

Time Temperature Precipitation Wind Pressure Humidity
00:00 -1°C° 0 mm 4 mps 758 mmHg 57%
01:00 -1°C° 0 mm 4 mps 758 mmHg 57%
02:00 -1°C° 0 mm 5 mps 757 mmHg 56%
03:00 -1°C° 0 mm 5 mps 757 mmHg 56%
04:00 0°C° 0 mm 5 mps 757 mmHg 54%
05:00 -1°C° 0 mm 6 mps 756 mmHg 53%
06:00 -1°C° 0 mm 7 mps 756 mmHg 51%
07:00 0°C° 0 mm 7 mps 756 mmHg 49%
08:00 +2°C° 0 mm 8 mps 755 mmHg 46%
09:00 +4°C° 0 mm 8 mps 755 mmHg 43%
10:00 +4°C° 0 mm 8 mps 755 mmHg 44%
11:00 +4°C° 0 mm 8 mps 755 mmHg 44%
12:00 +4°C° 0 mm 8 mps 754 mmHg 45%
13:00 +2°C° 0.5 mm 8 mps 754 mmHg 55%
14:00 +1°C° 0.5 mm 8 mps 754 mmHg 65%
15:00 0°C° 0.5 mm 9 mps 754 mmHg 75%
16:00 0°C° 0.3 mm 8 mps 754 mmHg 81%
17:00 -1°C° 0.3 mm 8 mps 754 mmHg 87%
18:00 -1°C° 0.3 mm 8 mps 754 mmHg 93%
19:00 -1°C° 0.1 mm 7 mps 754 mmHg 94%
20:00 -1°C° 0.1 mm 7 mps 754 mmHg 95%
21:00 -1°C° 0.1 mm 7 mps 754 mmHg 96%
22:00 -1°C° 0.2 mm 7 mps 754 mmHg 96%
23:00 -1°C° 0.2 mm 6 mps 754 mmHg 96%

22 April, Thursday

Time Temperature Precipitation Wind Pressure Humidity
00:00 -1°C° 0.2 mm 6 mps 754 mmHg 96%
01:00 -1°C° 0.1 mm 6 mps 754 mmHg 96%
02:00 -1°C° 0.1 mm 6 mps 753 mmHg 96%
03:00 0°C° 0.1 mm 5 mps 753 mmHg 96%
04:00 0°C° 0.1 mm 5 mps 753 mmHg 96%
05:00 0°C° 0.1 mm 5 mps 753 mmHg 96%
06:00 0°C° 0.1 mm 5 mps 753 mmHg 96%
07:00 0°C° 0.4 mm 5 mps 753 mmHg 96%
08:00 +1°C° 0.4 mm 5 mps 754 mmHg 95%
09:00 +1°C° 0.4 mm 5 mps 754 mmHg 95%
10:00 +2°C° 0.1 mm 5 mps 754 mmHg 94%
11:00 +2°C° 0.1 mm 5 mps 754 mmHg 93%
12:00 +3°C° 0.1 mm 5 mps 754 mmHg 92%
13:00 +3°C° 0 mm 5 mps 754 mmHg 91%
14:00 +5°C° 0 mm 5 mps 754 mmHg 90%
15:00 +6°C° 0 mm 5 mps 754 mmHg 90%
16:00 +5°C° 0 mm 5 mps 754 mmHg 90%
17:00 +5°C° 0 mm 5 mps 755 mmHg 91%
18:00 +5°C° 0 mm 5 mps 755 mmHg 92%
19:00 +5°C° 0 mm 5 mps 755 mmHg 93%
20:00 +5°C° 0 mm 5 mps 755 mmHg 94%
21:00 +5°C° 0 mm 5 mps 755 mmHg 95%
22:00 +5°C° 0 mm 5 mps 755 mmHg 95%
23:00 +5°C° 0 mm 5 mps 755 mmHg 94%

23 April, Friday

Time Temperature Precipitation Wind Pressure Humidity
00:00 +5°C° 0 mm 5 mps 755 mmHg 94%
01:00 +4°C° 0 mm 4 mps 755 mmHg 95%
02:00 +4°C° 0 mm 4 mps 755 mmHg 95%
03:00 +3°C° 0 mm 3 mps 755 mmHg 96%
04:00 +3°C° 0 mm 4 mps 755 mmHg 96%
05:00 +3°C° 0 mm 4 mps 755 mmHg 95%
06:00 +3°C° 0 mm 4 mps 756 mmHg 95%
07:00 +4°C° 0 mm 4 mps 756 mmHg 90%
08:00 +6°C° 0 mm 4 mps 756 mmHg 84%
09:00 +7°C° 0 mm 4 mps 756 mmHg 79%
10:00 +8°C° 0 mm 4 mps 756 mmHg 74%
11:00 +11°C° 0 mm 4 mps 755 mmHg 69%
12:00 +12°C° 0 mm 3 mps 755 mmHg 65%
13:00 +12°C° 0 mm 4 mps 755 mmHg 63%
14:00 +13°C° 0 mm 4 mps 755 mmHg 61%
15:00 +13°C° 0 mm 4 mps 755 mmHg 59%
16:00 +12°C° 0 mm 4 mps 755 mmHg 64%
17:00 +11°C° 0 mm 4 mps 755 mmHg 70%
18:00 +8°C° 0 mm 4 mps 755 mmHg 76%
19:00 +7°C° 0 mm 4 mps 755 mmHg 80%
20:00 +7°C° 0 mm 3 mps 755 mmHg 84%
21:00 +5°C° 0 mm 3 mps 755 mmHg 89%
22:00 +4°C° 0 mm 3 mps 754 mmHg 89%
23:00 +4°C° 0 mm 3 mps 754 mmHg 90%

24 April, Saturday

Time Temperature Precipitation Wind Pressure Humidity
00:00 +3°C° 0 mm 3 mps 754 mmHg 91%
01:00 +3°C° 0 mm 3 mps 754 mmHg 87%
02:00 +4°C° 0 mm 3 mps 754 mmHg 83%
03:00 +4°C° 0 mm 3 mps 753 mmHg 80%
04:00 +4°C° 0 mm 3 mps 753 mmHg 79%
05:00 +4°C° 0 mm 3 mps 753 mmHg 79%
06:00 +6°C° 0 mm 2 mps 753 mmHg 78%
07:00 +5°C° 0 mm 3 mps 753 mmHg 77%
08:00 +7°C° 0 mm 3 mps 752 mmHg 75%
09:00 +7°C° 0 mm 3 mps 752 mmHg 74%
10:00 +8°C° 0 mm 3 mps 752 mmHg 71%
11:00 +9°C° 0 mm 3 mps 752 mmHg 69%
12:00 +9°C° 0 mm 2 mps 752 mmHg 66%
13:00 +9°C° 0 mm 3 mps 751 mmHg 67%
14:00 +9°C° 0 mm 3 mps 751 mmHg 68%
15:00 +9°C° 0 mm 3 mps 751 mmHg 69%
16:00 +9°C° 0 mm 3 mps 751 mmHg 73%
17:00 +8°C° 0 mm 2 mps 751 mmHg 77%
18:00 +8°C° 0 mm 2 mps 751 mmHg 82%
19:00 +7°C° 0 mm 2 mps 751 mmHg 84%
20:00 +7°C° 0 mm 2 mps 751 mmHg 87%
21:00 +7°C° 0 mm 1 mps 751 mmHg 89%
22:00 +7°C° 0 mm 1 mps 751 mmHg 90%
23:00 +6°C° 0 mm 2 mps 751 mmHg 91%
Show more